ORBCOMM FM 13

Satellite information

Favourite Embed

Satellite Type and Status

PAYLOADIN ORBIT

Key statistics

Satellite ORBCOMM FM 13 at a glance.

Uptime

9995

Days in orbit

Revolutions

≈ 14.4

Per day

Orbit

LEO

Low Earth Orbit

Inclination

45.0

Latest

Satellite identification and parameters

Extended collection of information and parameters for ORBCOMM FM 13.

Object identification

Identified? True

Debris? False

Object name: ORBCOMM FM 13

International designator: 1998-046H

Object number (NORAD): 25420

Object ID (CCSDS): 25420

Country: ORBITAL TELECOMMUNICATIONS SATELLITE (GLOBALSTAR) (ORB)

Current information (Y/N): Y

RCS size: MEDIUM

Orbital parameters

Period: 100.125 minutes

Inclination: 44.9972 deg

SMA: 7142.602 km

Apoapsis: 767.053 km

Periapsis: 761.881 km

RAAN: 60.1605 deg

Eccentricy: 0.00036208

Argument of periapsis: 114.2624 deg

Mean anomaly: 245.8603 deg

Mean motion: 14.38195995 rev/day

Mean motion (dot): 0.00001855 rev/day2

B* drag term: 0.00065167861 1/REarth

Two-line elements (TLE)

Creation date: Dec. 12, 2025, 10:14 a.m.

Reference frame: TEME

Reference center: EARTH

Epoch: Dec. 12, 2025, 5:27 a.m. UTC

TLE line 0: 0 ORBCOMM FM 13

TLE line 1: 1 25420U 98046H 25346.22727606 .00001855 00000-0 65168-3 0 9990

TLE line 2: 2 25420 44.9972 60.1605 0003621 114.2624 245.8603 14.38195995428860

Live tracking on map

Real-time ground track for satellite ORBCOMM FM 13.

In-orbit conjunctions

There are no conjunctions computed for ORBCOMM FM 13, at the moment. Check back to stay up to date, as we update our databases every day.

Go to all conjunctions

Associated space launch

ORBCOMM FM 13 was lifted into orbit during the mission ‘Pegasus XL HAPS | Orbcomm-B1 - B8’, on board a Pegasus XL HAPS space rocket.

The launch took place on Aug. 2, 1998, 4:24 p.m. from Wallops Flight Facility.

For more information about the launch, click the button.

Launch to space Pegasus XL HAPS | Orbcomm-B1 - B8
Pegasus XL HAPS | Orbcomm-B1 - B8

Agency: N/A

Status: Launch Successful

Launch date: Aug. 2, 1998, 4:24 p.m. UTC

Rocket: Pegasus XL HAPS

Launch pad: Wallops Flight Facility

Location: Air launch to orbit

...

Latest news about this satellite

There are no fresh news available about this satellite. Check back as we update our databases every day.


Newsletter sign-up

Weekly statistics, charts and insights to help you stay on top of the space industry.